Location: Las Navas
(40.6024°N, 4.3345°W)
Time: 01:39:31
(UTC+00:00)

Cosmos 2181 Rocket - Pass Details

Date: 03 April 2020
Orbit: 952 x 1014 km, 82.9° (Epoch: 27 May)

Event Time Altitude Azimuth Distance (km) Brightness Sun altitude
Exits shadow 22:03:29 58° 291° (WNW) 1,136 4.4 -34.0°
Drops below altitude 10° 22:09:22 10° 359° (N) 2,720 6.8 -34.7°
Sets 22:11:55 0° 4° (N) 3,663 7.6 -35.1°
